Birmingham, AL

4:07 PM CST on December 08, 2019 (GMT -0600)
Birmingham International

Weather History for KBHM - November, 2019

Change the Weather History Date:

Monday, November 18, 2019

  Actual Average Record
Temperature  
Mean Temperature 48 °F 54 °F  
Max Temperature 61 °F 65 °F 82 °F (1930)
Min Temperature 34 °F 43 °F 20 °F (1959)
Degree Days  
Heating Degree Days 18 12  
Month to date heating degree days 299 167  
Since 1 July heating degree days 387 294  
Moisture  
Dew Point 36 °F    
Average Humidity 67    
Maximum Humidity 92    
Minimum Humidity 42    
Precipitation  
Precipitation 0.00 in 0.18 in 1.80 in (2015)
Month to date precipitation 0.78 2.70  
Year to date precipitation 45.69 47.12  
Snow  
Snow 0.00 in 0.00 in - ()
Month to date snowfall 0.0 0.0  
Since 1 July snowfall 0.0 0.0  
Since 1 September snowfall 0.0 0.0  
Snow Depth 0.00 in    
Sea Level Pressure  
Sea Level Pressure 29.89 in    
Wind  
Wind Speed 3 mph ()    
Max Wind Speed 15 mph    
Max Gust Speed 20 mph    
Visibility 9.6 miles    
Events      
T = Trace of Precipitation, MM = Missing Value Source: Averaged Metar Reports

Daily Weather History Graph

Daily Weather History Graph

Search for Another Location

Airport or City:

Astronomy

Nov. 18, 2019 Rise Set
Actual Time 6:21 AM CST 4:42 PM CST
Civil Twilight 5:54 AM CST 5:09 PM CST
Nautical Twilight 5:24 AM CST 5:39 PM CST
Astronomical Twilight 4:54 AM CST 6:09 PM CST
Moon 10:27 PM CST (11/18) 11:50 AM CST (11/18)
Length of Visible Light 11h 14m
Length of Day
10h 21m
Waning Gibbous, 63% of the Moon is Illuminated
Nov 18
Waning Gibbous
Nov 19
Last Quarter
Nov 26
New
Dec 4
First Quarter
Dec 11
Full

Hourly Weather History & Observations

Time (CST) Temp. Windchill Dew Point Humidity Pressure Visibility Wind Dir Wind Speed Gust Speed Precip Events Conditions
12:53 AM 37.0 °F - 34.0 °F 89% 29.92 in 10.0 mi Calm Calm - N/A   Clear
1:53 AM 37.9 °F - 33.1 °F 83% 29.91 in 10.0 mi Calm Calm - N/A   Clear
2:53 AM 36.0 °F 33.3 °F 33.1 °F 89% 29.90 in 9.0 mi ESE 3.5 mph - N/A   Clear
3:53 AM 36.0 °F - 32.0 °F 86% 29.89 in 9.0 mi Calm Calm - N/A   Clear
4:53 AM 35.1 °F - 30.9 °F 85% 29.89 in 8.0 mi Calm Calm - N/A   Partly Cloudy
6:53 AM 36.0 °F - 33.1 °F 89% 29.93 in 8.0 mi Calm Calm - N/A   Partly Cloudy
7:53 AM 41.0 °F - 37.0 °F 86% 29.93 in 9.0 mi Calm Calm - N/A   Mostly Cloudy
8:53 AM 46.0 °F - 37.0 °F 71% 29.94 in 9.0 mi Calm Calm - N/A   Mostly Cloudy
9:53 AM 53.1 °F - 37.0 °F 55% 29.92 in 10.0 mi Variable 4.6 mph - N/A   Mostly Cloudy
10:53 AM 55.0 °F - 36.0 °F 49% 29.90 in 10.0 mi WNW 4.6 mph - N/A   Mostly Cloudy
11:53 AM 57.9 °F - 37.0 °F 46% 29.87 in 10.0 mi WNW 8.1 mph - N/A   Mostly Cloudy
12:53 PM 60.1 °F - 37.0 °F 42% 29.85 in 10.0 mi NW 13.8 mph - N/A   Mostly Cloudy
1:53 PM 60.1 °F - 37.0 °F 42% 29.84 in 10.0 mi West 13.8 mph 18.4 mph N/A   Mostly Cloudy
2:53 PM 57.9 °F - 37.0 °F 46% 29.84 in 10.0 mi NW 9.2 mph - N/A   Mostly Cloudy
3:53 PM 57.0 °F - 37.9 °F 49% 29.85 in 10.0 mi West 11.5 mph - N/A   Mostly Cloudy
4:53 PM 54.0 °F - 37.9 °F 55% 29.86 in 10.0 mi West 12.7 mph - N/A   Mostly Cloudy
6:53 PM 48.9 °F - 36.0 °F 61% 29.88 in 10.0 mi WNW 6.9 mph - N/A   Partly Cloudy
7:53 PM 46.9 °F - 36.0 °F 66% 29.89 in 10.0 mi WNW 5.8 mph - N/A   Partly Cloudy
8:53 PM 44.1 °F - 35.1 °F 71% 29.89 in 10.0 mi Calm Calm - N/A   Scattered Clouds
9:53 PM 46.9 °F - 36.0 °F 66% 29.89 in 10.0 mi NW 4.6 mph - N/A   Mostly Cloudy
10:53 PM 43.0 °F - 36.0 °F 76% 29.90 in 10.0 mi Calm Calm - N/A   Scattered Clouds
11:53 PM 43.0 °F 41.3 °F 37.0 °F 80% 29.89 in 10.0 mi East 3.5 mph - N/A   Mostly Cloudy